This demonstration page uses our WeatherBlox Daily Observations layout. Learn more.

Left ArrowRight Arrow

30.21309, -93.2044

Hourly Observations for January 10, 2022

Temp ( °F °C ) Dew Point ( °F °C ) Humidity (%) Winds ( mph kmh ) Pressure ( in mb ) Visibility ( mi km ) Precip ( " mm )
12:15 am 00:15 Cloudy 57 14 51 10.3 79 79 NNE 16 26 30.35 1028 10 16 0.00 0.00
12:35 am 00:35 Cloudy 56 13.6 50 10.1 80 80 NNE 17 28 30.35 1028 10 16 0.00 0.00
12:55 am 00:55 Cloudy 56 13.1 50 9.9 81 81 NNE 10 17 30.36 1028 10 16 0.00 0.00
1:15 am 01:15 Cloudy 55 12.7 48 9.1 79 79 NNE 16 26 30.36 1028 10 16 0.00 0.00
1:35 am 01:35 Cloudy 53 11.8 46 7.6 76 76 NNE 16 26 30.35 1028 10 16 0.00 0.00
1:55 am 01:55 Cloudy 52 11.3 44 6.5 73 73 N 17 28 30.36 1028 10 16 0.00 0.00
2:15 am 02:15 Cloudy 52 11.1 43 6.1 72 72 NNE 14 22 30.37 1028 10 16 0.00 0.00
2:35 am 02:35 Cloudy 51 10.5 40 4.3 66 66 NNE 16 26 30.37 1028 10 16 0.00 0.00
2:55 am 02:55 Cloudy 50 10 39 4 67 67 NNE 16 26 30.37 1028 10 16 0.00 0.00
3:15 am 03:15 Cloudy 50 9.9 38 3.3 64 64 N 14 22 30.38 1029 10 16 0.00 0.00
3:35 am 03:35 Cloudy 49 9.7 38 3.1 64 64 NNE 15 24 30.38 1029 10 16 0.00 0.00
3:55 am 03:55 Mostly Cloudy 48 9.1 36 2.3 63 63 NNE 16 26 30.38 1029 10 16 0.00 0.00
4:15 am 04:15 Mostly Cloudy 48 8.7 35 1.6 61 61 N 16 26 30.40 1029 10 16 0.00 0.00
4:35 am 04:35 Mostly Cloudy 46 8 32 0 57 57 N 16 26 30.39 1029 10 16 0.00 0.00
4:55 am 04:55 Partly Cloudy 46 7.7 33 0.3 60 60 NNE 14 22 30.41 1030 10 16 0.00 0.00
5:15 am 05:15 Clear 45 7.4 31 -0.3 58 58 NNE 16 26 30.41 1030 10 16 0.00 0.00
5:35 am 05:35 Clear 45 7.2 31 -0.4 59 59 NNE 20 31 30.42 1030 10 16 0.00 0.00
6:00 am 06:00 Mostly Clear 45 7 30 -1 57 57 N 15 24 30.43 1030 10 16 0.00 0.00
6:49 am 06:49 Mostly Clear 45 7 30 -1 57 57 NNE 16 26 30.46 1032 10 16 0.00 0.00
7:46 am 07:46 Mostly Sunny 43 6 30 -1 61 61 N 8 13 30.50 1033 10 16 0.00 0.00
8:53 am 08:53 Mostly Sunny 45 7 28 -2 53 53 NNE 14 22 30.53 1034 10 16 0.00 0.00
9:50 am 09:50 Mostly Sunny 46 8 28 -2 50 50 NNE 14 22 30.55 1035 10 16 0.00 0.00
10:46 am 10:46 Mostly Sunny 50 10 28 -2 43 43 NNE 10 17 30.55 1035 10 16 0.00 0.00
11:55 am 11:55 Mostly Sunny 52 11 28 -2 41 41 N 13 20 30.52 1034 10 16 0.00 0.00
12:55 pm 12:55 Mostly Sunny 55 13 25 -4 31 31 N 14 22 30.50 1033 10 16 0.00 0.00
2:52 pm 14:52 Mostly Sunny 57 14 21 -6 25 25 NNE 14 22 30.46 1031 10 16 0.00 0.00
3:50 pm 15:50 Mostly Sunny 55 13 19 -7 24 24 NNE 15 24 30.46 1031 10 16 0.00 0.00
4:55 pm 16:55 Mostly Sunny 54 12 18 -8 24 24 NE 16 26 30.48 1032 10 16 0.00 0.00
5:50 pm 17:50 Mostly Clear 52 11 19 -7 28 28 NNE 8 13 30.50 1033 10 16 0.00 0.00
6:45 pm 18:45 Mostly Clear 48 9 21 -6 34 34 NNE 8 13 30.52 1034 10 16 0.00 0.00
7:55 pm 19:55 Mostly Clear 48 9 18 -8 29 29 NNE 8 13 30.55 1035 10 16 0.00 0.00
8:55 pm 20:55 Mostly Clear 45 7 18 -8 34 34 NNE 8 13 30.55 1035 10 16 0.00 0.00
9:55 pm 21:55 Mostly Clear 45 7 19 -7 37 37 NNE 8 13 30.56 1035 10 16 0.00 0.00
10:15 pm 22:15 Clear 43 6.2 20 -6.9 39 39 NNE 7 11 30.57 1035 10 16 0.00 0.00
10:35 pm 22:35 Clear 43 5.9 20 -6.7 40 40 NNE 7 11 30.58 1036 10 16 0.00 0.00
10:55 pm 22:55 Clear 42 5.8 20 -6.7 41 41 NNE 7 11 30.59 1036 10 16 0.00 0.00
11:15 pm 23:15 Clear 42 5.4 20 -6.5 42 42 NNE 7 11 30.58 1036 10 16 0.00 0.00
11:35 pm 23:35 Clear 42 5.4 20 -6.5 42 42 NNE 7 11 30.58 1036 10 16 0.00 0.00
11:55 pm 23:55 Clear 41 5 21 -6.3 44 44 NNE 6 9 30.57 1035 10 16 0.00 0.00

Powered by AerisWeather